| time (UTC) | temp C | wind direction | speed KPH | gust KPH | rain 1hr cm | rain 24hr cm | rain mn cm | humidity % | barometer mb |
| 20260507160137 | 16 | 225 | 32.2 | 54.7 | 0.00 | 0.10 | 0.10 | 64 | 1010.1 |
| 20260507155117 | 16 | 203 | 33.8 | 57.9 | 0.00 | 0.10 | 0.10 | 65 | 1008.9 |
| 20260507154607 | 16 | 225 | 40.2 | 62.8 | 0.00 | 0.10 | 0.10 | 64 | 1008.8 |
| 20260507154057 | 16 | 248 | 40.2 | 62.8 | 0.00 | 0.10 | 0.10 | 67 | 1008.3 |
| 20260507153547 | 16 | 225 | 46.7 | 61.2 | 0.00 | 0.10 | 0.10 | 68 | 1008.0 |
| 20260507153037 | 16 | 225 | 38.6 | 61.2 | 0.00 | 0.10 | 0.10 | 74 | 1008.0 |
| 20260507152016 | 15 | 248 | 40.2 | 61.2 | 0.00 | 0.10 | 0.10 | 76 | 1009.3 |
| 20260507151511 | 15 | 248 | 37.0 | 61.2 | 0.00 | 0.10 | 0.10 | 77 | 1009.7 |
| 20260507150958 | 16 | 225 | 37.0 | 57.9 | 0.00 | 0.10 | 0.10 | 64 | 1010.4 |
| 20260507150446 | 16 | 225 | 38.6 | 57.9 | 0.00 | 0.10 | 0.10 | 64 | 1009.3 |
| 20260507145936 | 16 | 248 | 30.6 | 51.5 | 0.00 | 0.10 | 0.10 | 65 | 1014.0 |
| 20260507145425 | 16 | 248 | 30.6 | 54.7 | 0.00 | 0.10 | 0.10 | 64 | 1012.2 |
| 20260507144916 | 16 | 248 | 37.0 | 54.7 | 0.00 | 0.10 | 0.10 | 64 | 1011.2 |
| 20260507144406 | 16 | 225 | 38.6 | 54.7 | 0.00 | 0.10 | 0.10 | 64 | 1010.2 |
| 20260507143856 | 16 | 248 | 35.4 | 57.9 | 0.00 | 0.10 | 0.10 | 64 | 1008.9 |
| 20260507143345 | 16 | 248 | 33.8 | 57.9 | 0.00 | 0.10 | 0.10 | 65 | 1008.3 |
| 20260507142836 | 16 | 248 | 41.8 | 57.9 | 0.00 | 0.10 | 0.10 | 65 | 1007.7 |
| 20260507142326 | 16 | 225 | 40.2 | 61.2 | 0.00 | 0.10 | 0.10 | 65 | 1008.0 |
| 20260507141815 | 16 | 225 | 45.1 | 61.2 | 0.00 | 0.10 | 0.10 | 64 | 1007.4 |
| 20260507141305 | 16 | 203 | 35.4 | 61.2 | 0.00 | 0.10 | 0.10 | 64 | 1007.3 |
| 20260507140755 | 16 | 203 | 33.8 | 54.7 | 0.00 | 0.10 | 0.10 | 64 | 1006.8 |
| 20260507140245 | 17 | 225 | 33.8 | 54.7 | 0.00 | 0.10 | 0.10 | 63 | 1007.0 |
| 20260507135734 | 17 | 225 | 35.4 | 57.9 | 0.00 | 0.10 | 0.10 | 63 | 1007.0 |
| 20260507135229 | 17 | 225 | 38.6 | 57.9 | 0.00 | 0.10 | 0.10 | 64 | 1007.5 |
| 20260507134714 | 17 | 225 | 38.6 | 54.7 | 0.00 | 0.10 | 0.10 | 67 | 1007.3 |
| 20260507134204 | 17 | 225 | 38.6 | 57.9 | 0.00 | 0.10 | 0.10 | 69 | 1007.9 |
| 20260507133144 | 17 | 225 | 33.8 | 48.3 | 0.00 | 0.10 | 0.10 | 71 | 1007.9 |
| 20260507132634 | 18 | 225 | 33.8 | 57.9 | 0.00 | 0.10 | 0.10 | 68 | 1007.2 |
| 20260507132123 | 18 | 203 | 45.1 | 57.9 | 0.00 | 0.10 | 0.10 | 71 | 1006.4 |
| 20260507131105 | 18 | 203 | 24.1 | 40.2 | 0.00 | 0.10 | 0.10 | 84 | 1006.1 |
| 20260507130554 | 18 | 203 | 27.4 | 43.5 | 0.00 | 0.10 | 0.10 | 83 | 1006.4 |
| 20260507130048 | 18 | 225 | 29.0 | 43.5 | 0.00 | 0.10 | 0.10 | 84 | 1006.2 |
| 20260507125023 | 18 | 225 | 24.1 | 35.4 | 0.00 | 0.10 | 0.10 | 88 | 1006.0 |
| 20260507124513 | 18 | 225 | 25.7 | 35.4 | 0.00 | 0.10 | 0.10 | 89 | 1006.3 |
| 20260507123453 | 18 | 180 | 24.1 | 35.4 | 0.00 | 0.10 | 0.10 | 89 | 1006.1 |
| 20260507122942 | 18 | 225 | 24.1 | 35.4 | 0.00 | 0.10 | 0.10 | 88 | 1005.9 |
| 20260507122432 | 18 | 225 | 27.4 | 43.5 | 0.00 | 0.10 | 0.10 | 88 | 1005.5 |
| 20260507121922 | 18 | 203 | 27.4 | 43.5 | 0.00 | 0.10 | 0.10 | 88 | 1005.4 |
| 20260507121412 | 18 | 203 | 25.7 | 38.6 | 0.00 | 0.10 | 0.10 | 88 | 1005.4 |
| 20260507120903 | 18 | 203 | 24.1 | 40.2 | 0.00 | 0.10 | 0.10 | 88 | 1005.6 |
| 20260507120353 | 18 | 203 | 24.1 | 48.3 | 0.00 | 0.10 | 0.10 | 88 | 1005.9 |
| 20260507115842 | 18 | 203 | 25.7 | 48.3 | 0.00 | 0.10 | 0.10 | 89 | 1005.8 |
| 20260507115332 | 18 | 203 | 24.1 | 46.7 | 0.00 | 0.10 | 0.10 | 89 | 1005.6 |
| 20260507114821 | 18 | 180 | 30.6 | 46.7 | 0.00 | 0.10 | 0.10 | 89 | 1005.3 |
| 20260507114311 | 18 | 180 | 25.7 | 40.2 | 0.00 | 0.10 | 0.10 | 89 | 1005.3 |
| 20260507113801 | 18 | 203 | 27.4 | 43.5 | 0.00 | 0.10 | 0.10 | 89 | 1005.1 |
| 20260507113251 | 18 | 225 | 29.0 | 46.7 | 0.00 | 0.10 | 0.10 | 89 | 1005.0 |
| 20260507112742 | 18 | 203 | 29.0 | 46.7 | 0.00 | 0.10 | 0.10 | 89 | 1004.7 |
| 20260507112231 | 18 | 203 | 27.4 | 46.7 | 0.00 | 0.10 | 0.10 | 90 | 1004.6 |
| 20260507110701 | 18 | 203 | 27.4 | 40.2 | 0.00 | 0.10 | 0.10 | 91 | 1003.6 |
| 20260507110152 | 18 | 203 | 27.4 | 40.2 | 0.00 | 0.10 | 0.10 | 90 | 1003.5 |
| 20260507105641 | 18 | 203 | 27.4 | 40.2 | 0.00 | 0.10 | 0.10 | 90 | 1003.6 |
| 20260507105136 | 18 | 203 | 30.6 | 40.2 | 0.00 | 0.10 | 0.10 | 90 | 1003.5 |
| 20260507104622 | 18 | 203 | 30.6 | 48.3 | 0.00 | 0.10 | 0.10 | 90 | 1003.3 |
| 20260507103601 | 18 | 203 | 27.4 | 43.5 | 0.00 | 0.10 | 0.10 | 90 | 1003.2 |
| 20260507103050 | 18 | 203 | 27.4 | 43.5 | 0.00 | 0.10 | 0.10 | 90 | 1003.2 |
| 20260507102540 | 18 | 225 | 27.4 | 43.5 | 0.00 | 0.10 | 0.10 | 91 | 1003.2 |
| 20260507102031 | 18 | 225 | 24.1 | 46.7 | 0.00 | 0.10 | 0.10 | 91 | 1003.2 |
| 20260507101010 | 19 | 203 | 22.5 | 40.2 | 0.00 | 0.10 | 0.10 | 93 | 1003.1 |
| 20260507100500 | 19 | 203 | 27.4 | 40.2 | 0.00 | 0.10 | 0.10 | 92 | 1002.8 |
| 20260507095439 | 18 | 203 | 25.7 | 37.0 | 0.00 | 0.10 | 0.10 | 93 | 1002.2 |
| 20260507094415 | 18 | 225 | 22.5 | 29.0 | 0.03 | 0.10 | 0.10 | 94 | 1002.5 |
| 20260507093358 | 18 | 225 | 17.7 | 33.8 | 0.10 | 0.10 | 0.10 | 94 | 1002.4 |
| 20260507092848 | 18 | 203 | 20.9 | 33.8 | 0.10 | 0.10 | 0.10 | 94 | 1002.1 |
| 20260507092338 | 18 | 225 | 14.5 | 27.4 | 0.10 | 0.10 | 0.10 | 94 | 1002.0 |
| 20260507091828 | 19 | 225 | 17.7 | 27.4 | 0.10 | 0.10 | 0.10 | 94 | 1001.9 |
| 20260507090809 | 19 | 203 | 17.7 | 27.4 | 0.10 | 0.10 | 0.10 | 94 | 1001.6 |
| 20260507090258 | 19 | 203 | 19.3 | 29.0 | 0.10 | 0.10 | 0.10 | 94 | 1001.8 |
| 20260507085748 | 19 | 225 | 17.7 | 33.8 | 0.10 | 0.10 | 0.10 | 95 | 1002.2 |
| 20260507085238 | 19 | 203 | 17.7 | 48.3 | 0.10 | 0.10 | 0.10 | 94 | 1002.2 |
| 20260507084728 | 20 | 225 | 25.7 | 48.3 | 0.10 | 0.10 | 0.10 | 92 | 1002.4 |
| 20260507083157 | 22 | 225 | 24.1 | 40.2 | 0.00 | 0.00 | 0.00 | 94 | 1001.8 |
| 20260507082647 | 22 | 248 | 24.1 | 32.2 | 0.00 | 0.00 | 0.00 | 97 | 1001.4 |
| 20260507082137 | 22 | 248 | 12.9 | 17.7 | 0.00 | 0.00 | 0.00 | 98 | 1001.2 |
| 20260507081627 | 22 | 270 | 0.0 | 0.0 | 0.00 | 0.00 | 0.00 | 98 | 1000.8 |
| 20260507081117 | 22 | 270 | 0.0 | 0.0 | 0.00 | 0.00 | 0.00 | 98 | 1000.9 |
| 20260507080607 | 22 | 248 | 0.0 | 0.0 | 0.00 | 0.00 | 0.00 | 97 | 1001.0 |
| 20260507075547 | 22 | 158 | 0.0 | 0.0 | 0.00 | 0.00 | 0.00 | 97 | 1001.0 |
| 20260507075037 | 22 | 90 | 0.0 | 0.0 | 0.00 | 0.00 | 0.00 | 97 | 1001.2 |
| 20260507074526 | 22 | 90 | 0.0 | 0.0 | 0.00 | 0.00 | 0.00 | 97 | 1001.8 |
| 20260507074016 | 22 | 90 | 0.0 | 0.0 | 0.00 | 0.00 | 0.00 | 96 | 1001.4 |
| 20260507073506 | 22 | 90 | 0.0 | 0.0 | 0.00 | 0.00 | 0.00 | 96 | 1001.4 |
| 20260507071936 | 22 | 90 | 0.0 | 0.0 | 0.00 | 0.00 | 0.00 | 96 | 1002.1 |
| 20260507071426 | 22 | 113 | 0.0 | 3.2 | 0.00 | 0.00 | 0.00 | 96 | 1002.3 |
| 20260507070916 | 22 | 113 | 0.0 | 3.2 | 0.00 | 0.00 | 0.00 | 96 | 1002.3 |
| 20260507070405 | 22 | 248 | 4.8 | 0.0 | 0.00 | 0.00 | 0.00 | 95 | 1002.3 |
| 20260507070156 | 22 | 248 | 4.8 | 0.0 | 0.00 | 0.00 | 0.00 | 95 | 1002.3 |
| 20260507065538 | 22 | 248 | 3.2 | 3.2 | 0.00 | 0.00 | 0.00 | 95 | 1002.4 |
| 20260507065027 | 22 | 338 | 0.0 | 3.2 | 0.00 | 0.00 | 0.00 | 94 | 1002.5 |
| 20260507064517 | 23 | 338 | 3.2 | 3.2 | 0.00 | 0.00 | 0.00 | 94 | 1002.4 |
| 20260507064007 | 23 | 338 | 1.6 | 6.4 | 0.00 | 0.00 | 0.00 | 94 | 1002.5 |
| 20260507063457 | 23 | 338 | 0.0 | 6.4 | 0.00 | 0.00 | 0.00 | 94 | 1002.7 |
| 20260507062947 | 23 | 45 | 3.2 | 6.4 | 0.00 | 0.00 | 0.00 | 94 | 1002.7 |
| 20260507061927 | 23 | 45 | 0.0 | 0.0 | 0.00 | 0.00 | 0.00 | 95 | 1002.9 |
| 20260507061422 | 22 | 225 | 0.0 | 0.0 | 0.00 | 0.00 | 0.00 | 95 | 1003.0 |
| 20260507060906 | 22 | 225 | 0.0 | 0.0 | 0.00 | 0.00 | 0.00 | 95 | 1003.5 |
| 20260507060357 | 22 | 225 | 0.0 | 0.0 | 0.00 | 0.00 | 0.00 | 95 | 1003.3 |
| 20260507055336 | 22 | 45 | 0.0 | 0.0 | 0.00 | 0.00 | 0.00 | 95 | 1003.6 |
| 20260507054316 | 22 | 45 | 0.0 | 0.0 | 0.00 | 0.00 | 0.00 | 94 | 1003.2 |
| 20260507053806 | 22 | 23 | 0.0 | 0.0 | 0.00 | 0.00 | 0.00 | 94 | 1003.5 |
| 20260507053256 | 22 | 23 | 0.0 | 0.0 | 0.00 | 0.00 | 0.00 | 94 | 1003.3 |
| 20260507052746 | 23 | 23 | 0.0 | 0.0 | 0.00 | 0.00 | 0.00 | 94 | 1003.5 |
| 20260507052236 | 23 | 23 | 0.0 | 0.0 | 0.00 | 0.00 | 0.00 | 93 | 1003.3 |
| 20260507051726 | 23 | 23 | 0.0 | 0.0 | 0.00 | 0.00 | 0.00 | 93 | 1003.6 |
| 20260507051215 | 23 | 23 | 0.0 | 0.0 | 0.00 | 0.00 | 0.00 | 93 | 1003.3 |
| 20260507050705 | 23 | 23 | 0.0 | 3.2 | 0.00 | 0.00 | 0.00 | 92 | 1003.7 |
| 20260507050155 | 23 | 23 | 0.0 | 3.2 | 0.00 | 0.00 | 0.00 | 92 | 1003.4 |
| 20260507045135 | 23 | 23 | 3.2 | 6.4 | 0.00 | 0.00 | 0.00 | 92 | 1003.3 |
| 20260507044115 | 23 | 23 | 3.2 | 6.4 | 0.00 | 0.00 | 0.00 | 92 | 1003.3 |
| 20260507043605 | 23 | 23 | 3.2 | 6.4 | 0.00 | 0.00 | 0.00 | 92 | 1003.2 |
| 20260507043103 | 23 | 338 | 1.6 | 3.2 | 0.00 | 0.00 | 0.00 | 92 | 1003.5 |
| 20260507042544 | 23 | 0 | 3.2 | 3.2 | 0.00 | 0.00 | 0.00 | 92 | 1003.2 |
| 20260507041534 | 23 | 23 | 1.6 | 3.2 | 0.00 | 0.00 | 0.00 | 92 | 1003.5 |
| 20260507041013 | 23 | 338 | 1.6 | 6.4 | 0.00 | 0.00 | 0.00 | 92 | 1003.5 |
| 20260507035953 | 23 | 338 | 3.2 | 6.4 | 0.00 | 0.00 | 0.00 | 91 | 1003.5 |
| 20260507035444 | 23 | 0 | 3.2 | 6.4 | 0.00 | 0.00 | 0.00 | 91 | 1003.7 |
| 20260507034424 | 23 | 23 | 3.2 | 9.7 | 0.00 | 0.00 | 0.00 | 90 | 1003.8 |
| 20260507033913 | 23 | 68 | 3.2 | 9.7 | 0.00 | 0.00 | 0.00 | 90 | 1003.8 |
| 20260507033403 | 23 | 68 | 3.2 | 9.7 | 0.00 | 0.00 | 0.00 | 90 | 1003.7 |
| 20260507032853 | 23 | 45 | 4.8 | 9.7 | 0.00 | 0.00 | 0.00 | 89 | 1003.7 |
| 20260507032343 | 23 | 23 | 6.4 | 9.7 | 0.00 | 0.00 | 0.00 | 89 | 1003.5 |
| 20260507031832 | 23 | 0 | 3.2 | 11.3 | 0.00 | 0.00 | 0.00 | 89 | 1003.5 |
| 20260507031322 | 23 | 23 | 6.4 | 12.9 | 0.00 | 0.00 | 0.00 | 89 | 1003.6 |
| 20260507030812 | 23 | 68 | 6.4 | 12.9 | 0.00 | 0.00 | 0.00 | 88 | 1003.5 |
| 20260507025243 | 24 | 45 | 9.7 | 12.9 | 0.00 | 0.00 | 0.00 | 87 | 1004.0 |
| 20260507024732 | 24 | 23 | 4.8 | 12.9 | 0.00 | 0.00 | 0.00 | 87 | 1003.8 |
| 20260507024222 | 24 | 68 | 6.4 | 12.9 | 0.00 | 0.00 | 0.00 | 86 | 1004.1 |
| 20260507023712 | 24 | 45 | 6.4 | 12.9 | 0.00 | 0.00 | 0.00 | 86 | 1004.0 |
| 20260507023201 | 24 | 45 | 6.4 | 12.9 | 0.00 | 0.00 | 0.00 | 85 | 1004.0 |
| 20260507022142 | 25 | 45 | 11.3 | 14.5 | 0.00 | 0.00 | 0.00 | 84 | 1003.8 |
| 20260507021632 | 25 | 45 | 8.0 | 17.7 | 0.00 | 0.00 | 0.00 | 83 | 1003.8 |
| 20260507020612 | 25 | 68 | 9.7 | 17.7 | 0.00 | 0.00 | 0.00 | 81 | 1003.8 |
| 20260507015551 | 25 | 23 | 11.3 | 20.9 | 0.00 | 0.00 | 0.00 | 80 | 1003.8 |
| 20260507015042 | 25 | 45 | 9.7 | 24.1 | 0.00 | 0.00 | 0.00 | 80 | 1003.7 |
| 20260507014531 | 25 | 23 | 9.7 | 24.1 | 0.00 | 0.00 | 0.00 | 80 | 1003.6 |
| 20260507014022 | 25 | 68 | 12.9 | 25.7 | 0.00 | 0.00 | 0.00 | 79 | 1003.8 |
| 20260507012450 | 26 | 90 | 12.9 | 17.7 | 0.00 | 0.00 | 0.00 | 78 | 1003.7 |
| 20260507011940 | 26 | 45 | 9.7 | 24.1 | 0.00 | 0.00 | 0.00 | 78 | 1003.7 |
| 20260507011430 | 26 | 23 | 9.7 | 24.1 | 0.00 | 0.00 | 0.00 | 77 | 1003.7 |
| 20260507010921 | 26 | 45 | 9.7 | 29.0 | 0.00 | 0.00 | 0.00 | 77 | 1003.7 |
| 20260507010410 | 26 | 23 | 16.1 | 29.0 | 0.00 | 0.00 | 0.00 | 76 | 1003.7 |
| 20260507005900 | 26 | 23 | 14.5 | 25.7 | 0.00 | 0.00 | 0.00 | 76 | 1003.7 |
| 20260507005350 | 26 | 45 | 12.9 | 24.1 | 0.00 | 0.00 | 0.00 | 76 | 1003.7 |
| 20260507004330 | 26 | 23 | 17.7 | 32.2 | 0.00 | 0.00 | 0.00 | 76 | 1003.7 |
| 20260507003819 | 26 | 45 | 14.5 | 32.2 | 0.00 | 0.00 | 0.00 | 76 | 1003.7 |
| 20260507003309 | 26 | 23 | 17.7 | 27.4 | 0.00 | 0.00 | 0.00 | 75 | 1003.7 |
| 20260507002759 | 26 | 68 | 19.3 | 27.4 | 0.00 | 0.00 | 0.00 | 75 | 1003.7 |
| 20260506235658 | 26 | 23 | 16.1 | 32.2 | 0.00 | 0.00 | 0.00 | 75 | 1003.4 |
| 20260506235148 | 26 | 0 | 19.3 | 32.2 | 0.00 | 0.00 | 0.00 | 75 | 1003.6 |
| 20260506234639 | 26 | 68 | 14.5 | 33.8 | 0.00 | 0.00 | 0.00 | 76 | 1003.3 |
| 20260506234128 | 26 | 45 | 17.7 | 33.8 | 0.00 | 0.00 | 0.00 | 75 | 1003.7 |
| 20260506233620 | 26 | 45 | 17.7 | 27.4 | 0.00 | 0.00 | 0.00 | 76 | 1003.6 |
| 20260506232558 | 26 | 45 | 12.9 | 29.0 | 0.00 | 0.00 | 0.00 | 76 | 1004.2 |
| 20260506231537 | 26 | 23 | 16.1 | 24.1 | 0.00 | 0.00 | 0.00 | 77 | 1004.5 |
| 20260506231027 | 26 | 0 | 12.9 | 17.7 | 0.00 | 0.00 | 0.00 | 77 | 1004.5 |
| 20260506230517 | 26 | 23 | 11.3 | 20.9 | 0.00 | 0.00 | 0.00 | 77 | 1004.6 |
| 20260506230013 | 26 | 45 | 11.3 | 20.9 | 0.00 | 0.00 | 0.00 | 77 | 1004.7 |
| 20260506225458 | 26 | 45 | 14.5 | 17.7 | 0.00 | 0.00 | 0.00 | 76 | 1004.5 |
| 20260506224947 | 26 | 23 | 11.3 | 17.7 | 0.00 | 0.00 | 0.00 | 77 | 1004.5 |
| 20260506224437 | 26 | 45 | 6.4 | 17.7 | 0.00 | 0.00 | 0.00 | 77 | 1004.6 |
| 20260506223927 | 26 | 45 | 8.0 | 17.7 | 0.00 | 0.00 | 0.00 | 76 | 1004.7 |
| 20260506223416 | 26 | 45 | 8.0 | 17.7 | 0.00 | 0.00 | 0.00 | 75 | 1004.7 |
| 20260506222907 | 26 | 45 | 6.4 | 11.3 | 0.00 | 0.00 | 0.00 | 76 | 1004.7 |
| 20260506221847 | 26 | 23 | 6.4 | 12.9 | 0.00 | 0.00 | 0.00 | 75 | 1005.0 |
| 20260506221336 | 27 | 45 | 6.4 | 12.9 | 0.00 | 0.00 | 0.00 | 74 | 1004.8 |
| 20260506220826 | 27 | 23 | 8.0 | 14.5 | 0.00 | 0.00 | 0.00 | 74 | 1004.9 |
| 20260506215806 | 27 | 68 | 11.3 | 17.7 | 0.00 | 0.00 | 0.00 | 73 | 1004.6 |
| 20260506215256 | 27 | 23 | 6.4 | 17.7 | 0.00 | 0.00 | 0.00 | 73 | 1004.6 |
| 20260506214747 | 27 | 68 | 8.0 | 14.5 | 0.00 | 0.00 | 0.00 | 73 | 1004.6 |
| 20260506214236 | 27 | 45 | 8.0 | 14.5 | 0.00 | 0.00 | 0.00 | 72 | 1004.6 |
| 20260506213726 | 27 | 45 | 8.0 | 14.5 | 0.00 | 0.00 | 0.00 | 72 | 1004.6 |
| 20260506213217 | 27 | 45 | 8.0 | 17.7 | 0.00 | 0.00 | 0.00 | 71 | 1004.7 |
| 20260506212705 | 27 | 45 | 6.4 | 17.7 | 0.00 | 0.00 | 0.00 | 71 | 1004.6 |
| 20260506212155 | 28 | 23 | 11.3 | 25.7 | 0.00 | 0.00 | 0.00 | 70 | 1004.8 |
| 20260506211645 | 28 | 23 | 12.9 | 25.7 | 0.00 | 0.00 | 0.00 | 69 | 1004.7 |
| 20260506211135 | 28 | 68 | 12.9 | 22.5 | 0.00 | 0.00 | 0.00 | 69 | 1004.7 |
| 20260506210114 | 28 | 23 | 12.9 | 20.9 | 0.00 | 0.00 | 0.00 | 69 | 1004.8 |
| 20260506205604 | 28 | 45 | 11.3 | 17.7 | 0.00 | 0.00 | 0.00 | 69 | 1004.9 |
| 20260506205054 | 28 | 23 | 9.7 | 20.9 | 0.00 | 0.00 | 0.00 | 69 | 1005.0 |
| 20260506204544 | 28 | 45 | 9.7 | 20.9 | 0.00 | 0.00 | 0.00 | 68 | 1005.1 |
| 20260506203525 | 29 | 23 | 9.7 | 24.1 | 0.00 | 0.00 | 0.00 | 66 | 1005.1 |
| 20260506203014 | 29 | 0 | 14.5 | 27.4 | 0.00 | 0.00 | 0.00 | 65 | 1004.8 |
| 20260506201444 | 30 | 23 | 16.1 | 25.7 | 0.00 | 0.00 | 0.00 | 64 | 1004.5 |
| 20260506200934 | 30 | 68 | 9.7 | 20.9 | 0.00 | 0.00 | 0.00 | 62 | 1004.6 |
| 20260506200424 | 30 | 23 | 11.3 | 24.1 | 0.00 | 0.00 | 0.00 | 62 | 1004.6 |
| 20260506195913 | 30 | 68 | 11.3 | 24.1 | 0.00 | 0.00 | 0.00 | 62 | 1004.2 |
| 20260506195403 | 30 | 68 | 14.5 | 27.4 | 0.00 | 0.00 | 0.00 | 62 | 1004.6 |
| 20260506194852 | 30 | 45 | 16.1 | 32.2 | 0.00 | 0.00 | 0.00 | 61 | 1004.3 |
| 20260506193323 | 30 | 45 | 12.9 | 27.4 | 0.00 | 0.00 | 0.00 | 62 | 1004.6 |
| 20260506192813 | 31 | 338 | 12.9 | 27.4 | 0.00 | 0.00 | 0.00 | 62 | 1004.6 |
| 20260506192305 | 31 | 68 | 11.3 | 32.2 | 0.00 | 0.00 | 0.00 | 62 | 1004.8 |
| 20260506191752 | 30 | 23 | 14.5 | 32.2 | 0.00 | 0.00 | 0.00 | 63 | 1004.7 |
| 20260506191242 | 31 | 270 | 17.7 | 29.0 | 0.00 | 0.00 | 0.00 | 61 | 1004.9 |
| 20260506190732 | 31 | 23 | 12.9 | 27.4 | 0.00 | 0.00 | 0.00 | 62 | 1004.8 |
| 20260506190222 | 31 | 0 | 14.5 | 27.4 | 0.00 | 0.00 | 0.00 | 63 | 1005.2 |
| 20260506185712 | 30 | 0 | 14.5 | 35.4 | 0.00 | 0.00 | 0.00 | 63 | 1005.1 |
| 20260506185202 | 31 | 23 | 17.7 | 35.4 | 0.00 | 0.00 | 0.00 | 62 | 1005.1 |
| 20260506184651 | 31 | 45 | 17.7 | 33.8 | 0.00 | 0.00 | 0.00 | 62 | 1005.0 |
| 20260506184141 | 31 | 338 | 12.9 | 29.0 | 0.00 | 0.00 | 0.00 | 63 | 1004.9 |
| 20260506183631 | 31 | 45 | 17.7 | 29.0 | 0.00 | 0.00 | 0.00 | 62 | 1005.1 |
| 20260506183121 | 31 | 23 | 16.1 | 29.0 | 0.00 | 0.00 | 0.00 | 63 | 1005.3 |
| 20260506182611 | 31 | 0 | 14.5 | 29.0 | 0.00 | 0.00 | 0.00 | 63 | 1005.5 |
| 20260506182101 | 31 | 23 | 14.5 | 29.0 | 0.00 | 0.00 | 0.00 | 62 | 1005.4 |
| 20260506181551 | 31 | 45 | 16.1 | 27.4 | 0.00 | 0.00 | 0.00 | 62 | 1005.7 |
| 20260506181042 | 31 | 0 | 12.9 | 35.4 | 0.00 | 0.00 | 0.00 | 62 | 1005.9 |
| 20260506180530 | 30 | 23 | 17.7 | 35.4 | 0.00 | 0.00 | 0.00 | 64 | 1006.0 |
| 20260506180020 | 31 | 0 | 17.7 | 33.8 | 0.00 | 0.00 | 0.00 | 63 | 1005.9 |
| 20260506175510 | 31 | 0 | 17.7 | 27.4 | 0.00 | 0.00 | 0.00 | 63 | 1006.1 |
| 20260506175000 | 31 | 0 | 14.5 | 29.0 | 0.00 | 0.00 | 0.00 | 62 | 1006.3 |
| 20260506173940 | 31 | 0 | 24.1 | 37.0 | 0.00 | 0.00 | 0.00 | 63 | 1006.3 |
| 20260506173430 | 31 | 338 | 24.1 | 35.4 | 0.00 | 0.00 | 0.00 | 63 | 1006.2 |
| 20260506172919 | 30 | 0 | 17.7 | 32.2 | 0.00 | 0.00 | 0.00 | 63 | 1006.4 |
| 20260506171859 | 30 | 45 | 17.7 | 32.2 | 0.00 | 0.00 | 0.00 | 64 | 1006.6 |
| 20260506171349 | 30 | 45 | 16.1 | 29.0 | 0.00 | 0.00 | 0.00 | 64 | 1006.8 |
| 20260506170839 | 30 | 0 | 16.1 | 29.0 | 0.00 | 0.00 | 0.00 | 64 | 1006.7 |
| 20260506170329 | 29 | 23 | 19.3 | 29.0 | 0.00 | 0.00 | 0.00 | 66 | 1006.8 |
| 20260506165819 | 30 | 45 | 12.9 | 29.0 | 0.00 | 0.00 | 0.00 | 66 | 1006.9 |
| 20260506163738 | 29 | 338 | 14.5 | 33.8 | 0.00 | 0.00 | 0.00 | 66 | 1007.1 |
| 20260506163228 | 29 | 45 | 19.3 | 35.4 | 0.00 | 0.00 | 0.00 | 67 | 1007.3 |
| 20260506162209 | 28 | 23 | 22.5 | 35.4 | 0.00 | 0.00 | 0.00 | 67 | 1007.7 |
| 20260506161658 | 29 | 45 | 22.5 | 35.4 | 0.00 | 0.00 | 0.00 | 65 | 1007.5 |
| 20260506161148 | 30 | 0 | 17.7 | 38.6 | 0.00 | 0.00 | 0.00 | 65 | 1007.6 |
| 20260506160638 | 29 | 23 | 27.4 | 38.6 | 0.00 | 0.00 | 0.00 | 67 | 1007.4 |